Location: Bastelaar
(51.0950°N, 3.8602°E)
Time: 06:41:19
(UTC+00:00)

Cosmos 2026 Rocket - Pass Details

Date: 18 November 2025
Orbit: 938 x 1000 km, 82.9° (Epoch: 10 December)

Event Time Altitude Azimuth Distance (km) Brightness Sun altitude
Rises 18:12:18 0° 351° (N) 3,615 7.0 -21.6°
Reaches altitude 10° 18:14:48 10° 353° (N) 2,670 6.3 -22.0°
Maximum altitude 18:20:53 73° 78° (ENE) 994 3.8 -22.9°
Drops below altitude 10° 18:27:01 10° 164° (SSE) 2,683 6.2 -23.9°
Sets 18:29:32 0° 166° (SSE) 3,634 6.9 -24.3°
